Elizabethton, TN

10:55 PM EST on December 04, 2016 (GMT -0500)
Elizabethton

Weather History for K0A9 - February, 2013

Change the Weather History Date:

Wednesday, February 27, 2013

  Actual Average (KTRI) Record (KTRI)
Temperature  
Mean Temperature 40 °F 42 °F  
Max Temperature 44 °F 54 °F 74 °F (1996)
Min Temperature 35 °F 31 °F 2 °F (1963)
Degree Days  
Heating Degree Days 26 23  
Month to date heating degree days 705  
Since 1 July heating degree days 3359  
Cooling Degree Days 0 0  
Month to date cooling degree days 0  
Year to date cooling degree days 0  
Moisture  
Dew Point 31 °F    
Average Humidity 74    
Maximum Humidity 93    
Minimum Humidity 57    
Precipitation  
Precipitation 0.00 in 0.12 in 1.02 in (1987)
Month to date precipitation 3.33  
Year to date precipitation 6.70  
Snow  
Snow 0.00 in 0.10 in - ()
Month to date snowfall 3.3  
Since 1 July snowfall 10.7  
Snow Depth -    
Sea Level Pressure  
Sea Level Pressure 29.75 in    
Wind  
Wind Speed 9 mph (West)    
Max Wind Speed 16 mph    
Max Gust Speed 24 mph    
Visibility 10 miles    
Events Rain    
T = Trace of Precipitation, MM = Missing Value Source: NWS Daily Summary

Daily Weather History Graph

Daily Weather History Graph

Search for Another Location

Airport or City:

Trip Planner

Search our weather history database for the weather conditions in past years. The results will help you decide how hot, cold, wet, or windy it might be!

Date:

Astronomy

Feb. 27, 2013 Rise Set
Actual Time 7:01 AM EST 6:21 PM EST
Civil Twilight 6:35 AM EST 6:47 PM EST
Nautical Twilight 6:05 AM EST 7:17 PM EST
Astronomical Twilight 5:35 AM EST 7:47 PM EST
Moon 8:35 PM EST (2/27) 7:40 AM EST (2/27)
Length of Visible Light 12h 12m
Length of Day
11h 20m
Waning Gibbous, 96% of the Moon is Illuminated
Feb 27
Waning Gibbous
Mar 4
Last Quarter
Mar 11
New
Mar 19
First Quarter
Mar 27
Full

Hourly Weather History & Observations

Time (EST) Temp. Windchill Dew Point Humidity Pressure Visibility Wind Dir Wind Speed Gust Speed Precip Events Conditions
12:55 AM 39.2 °F 35.9 °F 33.8 °F 81% 29.65 in 10.0 mi SW 4.6 mph - N/A   Overcast
1:15 AM 39.2 °F 37.0 °F 33.8 °F 81% 29.65 in 10.0 mi West 3.5 mph - N/A   Overcast
1:35 AM 39.2 °F 34.2 °F 32.0 °F 75% 29.66 in 10.0 mi WSW 6.9 mph - N/A   Overcast
1:55 AM 39.2 °F 31.2 °F 32.0 °F 75% 29.67 in 10.0 mi West 13.8 mph - N/A   Overcast
2:15 AM 39.2 °F 32.0 °F 30.2 °F 70% 29.67 in 10.0 mi WSW 11.5 mph - N/A   Overcast
2:35 AM 39.2 °F 30.8 °F 32.0 °F 75% 29.66 in 10.0 mi West 15.0 mph - N/A   Overcast
2:55 AM 39.2 °F 30.5 °F 32.0 °F 75% 29.67 in 10.0 mi WSW 16.1 mph - N/A   Light Drizzle
3:15 AM 37.4 °F 29.8 °F 32.0 °F 81% 29.68 in 10.0 mi WSW 11.5 mph - N/A   Overcast
3:35 AM 37.4 °F 30.8 °F 32.0 °F 81% 29.68 in 10.0 mi WSW 9.2 mph - N/A   Overcast
3:55 AM 37.4 °F 30.8 °F 30.2 °F 75% 29.69 in 10.0 mi WSW 9.2 mph - N/A   Overcast
4:15 AM 37.4 °F 29.8 °F 32.0 °F 81% 29.70 in 10.0 mi WSW 11.5 mph - N/A   Overcast
4:35 AM 37.4 °F 29.3 °F 30.2 °F 75% 29.71 in 10.0 mi WSW 12.7 mph - N/A   Overcast
4:55 AM 37.4 °F 30.8 °F 30.2 °F 75% 29.71 in 10.0 mi WSW 9.2 mph - N/A   Overcast
5:15 AM 37.4 °F 29.8 °F 30.2 °F 75% 29.72 in 10.0 mi West 11.5 mph - N/A   Overcast
5:35 AM 37.4 °F 30.8 °F 30.2 °F 75% 29.72 in 10.0 mi WSW 9.2 mph - N/A   Overcast
5:55 AM 37.4 °F 30.3 °F 30.2 °F 75% 29.73 in 10.0 mi WSW 10.4 mph - N/A   Overcast
6:15 AM 37.4 °F 31.4 °F 30.2 °F 75% 29.73 in 10.0 mi West 8.1 mph - N/A   Overcast
6:35 AM 37.4 °F 29.8 °F 30.2 °F 75% 29.74 in 10.0 mi WSW 11.5 mph - N/A   Overcast
6:55 AM 37.4 °F 29.8 °F 30.2 °F 75% 29.74 in 10.0 mi West 11.5 mph - N/A   Overcast
7:15 AM 35.6 °F 28.6 °F 30.2 °F 81% 29.75 in 10.0 mi WSW 9.2 mph - N/A   Overcast
7:35 AM 37.4 °F 30.3 °F 30.2 °F 75% 29.75 in 10.0 mi WSW 10.4 mph - N/A   Overcast
7:55 AM 37.4 °F 30.8 °F 30.2 °F 75% 29.76 in 10.0 mi West 9.2 mph - N/A   Overcast
8:15 AM 37.4 °F 30.3 °F 30.2 °F 75% 29.78 in 10.0 mi WSW 10.4 mph - N/A   Overcast
8:35 AM 37.4 °F 30.3 °F 30.2 °F 75% 29.78 in 10.0 mi WSW 10.4 mph - N/A   Overcast
8:55 AM 37.4 °F 30.3 °F 30.2 °F 75% 29.78 in 10.0 mi WSW 10.4 mph - N/A   Overcast
9:15 AM 37.4 °F 28.9 °F 30.2 °F 75% 29.79 in 10.0 mi WSW 13.8 mph - N/A   Overcast
9:35 AM 37.4 °F 30.3 °F 30.2 °F 75% 29.80 in 10.0 mi WSW 10.4 mph - N/A   Overcast
9:55 AM 37.4 °F 30.3 °F 30.2 °F 75% 29.80 in 10.0 mi WSW 10.4 mph - N/A   Overcast
10:15 AM 37.4 °F 28.9 °F 28.4 °F 70% 29.80 in 10.0 mi West 13.8 mph 24.2 mph N/A   Overcast
10:35 AM 37.4 °F 31.4 °F 30.2 °F 75% 29.81 in 10.0 mi West 8.1 mph - N/A   Overcast
10:55 AM 37.4 °F 32.1 °F 28.4 °F 70% 29.81 in 10.0 mi West 6.9 mph - N/A   Overcast
11:15 AM 37.4 °F 29.8 °F 30.2 °F 75% 29.82 in 10.0 mi WSW 11.5 mph - N/A   Overcast
11:35 AM 37.4 °F 29.8 °F 30.2 °F 75% 29.82 in 10.0 mi WSW 11.5 mph - N/A   Overcast
11:55 AM 37.4 °F 31.4 °F 30.2 °F 75% 29.81 in 10.0 mi WSW 8.1 mph - N/A   Overcast
12:15 PM 39.2 °F 31.2 °F 30.2 °F 70% 29.80 in 10.0 mi WSW 13.8 mph - N/A   Overcast
12:35 PM 39.2 °F 32.0 °F 30.2 °F 70% 29.79 in 10.0 mi WSW 11.5 mph - N/A   Overcast
12:55 PM 37.4 °F 29.8 °F 30.2 °F 75% 29.79 in 10.0 mi WSW 11.5 mph - N/A   Overcast
1:15 PM 39.2 °F 32.5 °F 30.2 °F 70% 29.78 in 10.0 mi WSW 10.4 mph - N/A   Overcast
1:55 PM 41.0 °F 35.2 °F 30.2 °F 65% 29.77 in 10.0 mi WNW 9.2 mph - N/A   Overcast
2:15 PM 44.6 °F 39.2 °F 32.0 °F 61% 29.77 in 10.0 mi WNW 10.4 mph - N/A   Scattered Clouds
2:35 PM 41.0 °F 35.2 °F 30.2 °F 65% 29.77 in 10.0 mi WNW 9.2 mph - N/A   Mostly Cloudy
2:55 PM 42.8 °F 37.0 °F 30.2 °F 61% 29.76 in 10.0 mi WNW 10.4 mph - N/A   Overcast
3:15 PM 42.8 °F 36.6 °F 30.2 °F 61% 29.76 in 10.0 mi WSW 11.5 mph - N/A   Overcast
3:35 PM 42.8 °F 37.0 °F 30.2 °F 61% 29.75 in 10.0 mi WNW 10.4 mph - N/A   Overcast
3:55 PM 44.6 °F 40.2 °F 32.0 °F 61% 29.75 in 10.0 mi WSW 8.1 mph - N/A   Scattered Clouds
4:15 PM 44.6 °F 40.7 °F 30.2 °F 57% 29.74 in 10.0 mi WNW 6.9 mph - N/A   Clear
4:35 PM 44.6 °F 40.2 °F 30.2 °F 57% 29.74 in 10.0 mi WNW 8.1 mph - N/A   Clear
4:55 PM 44.6 °F 40.2 °F 30.2 °F 57% 29.74 in 10.0 mi WSW 8.1 mph - N/A   Clear
5:15 PM 44.6 °F 39.2 °F 30.2 °F 57% 29.74 in 10.0 mi West 10.4 mph - N/A   Clear
5:35 PM 42.8 °F 38.6 °F 30.2 °F 61% 29.74 in 10.0 mi West 6.9 mph - N/A   Clear
5:55 PM 42.8 °F 38.0 °F 30.2 °F 61% 29.75 in 10.0 mi WNW 8.1 mph - N/A   Clear
6:15 PM 41.0 °F 35.2 °F 30.2 °F 65% 29.77 in 10.0 mi West 9.2 mph - N/A   Clear
6:35 PM 41.0 °F 38.0 °F 30.2 °F 65% 29.78 in 10.0 mi West 4.6 mph - N/A   Scattered Clouds
6:55 PM 41.0 °F 38.0 °F 30.2 °F 65% 29.78 in 10.0 mi WSW 4.6 mph - N/A   Mostly Cloudy
7:15 PM 41.0 °F 39.0 °F 30.2 °F 65% 29.78 in 10.0 mi West 3.5 mph - N/A   Overcast
7:35 PM 41.0 °F 39.0 °F 30.2 °F 65% 29.78 in 10.0 mi West 3.5 mph - N/A Rain Light Rain
7:55 PM 39.2 °F 35.9 °F 30.2 °F 70% 29.78 in 10.0 mi West 4.6 mph - N/A   Light Drizzle
8:15 PM 39.2 °F 33.6 °F 30.2 °F 70% 29.77 in 10.0 mi West 8.1 mph - N/A Rain Light Rain
8:35 PM 37.4 °F 28.9 °F 33.8 °F 87% 29.79 in 6.0 mi West 13.8 mph - N/A Rain Light Rain
9:15 PM 35.6 °F 29.9 °F 33.8 °F 93% 29.80 in 10.0 mi WSW 6.9 mph - N/A   Light Drizzle
9:35 PM 35.6 °F 30.7 °F 33.8 °F 93% 29.80 in 10.0 mi WSW 5.8 mph - N/A Rain Light Rain
9:55 PM 35.6 °F 29.2 °F 33.8 °F 93% 29.80 in 10.0 mi WSW 8.1 mph - N/A   Overcast
10:15 PM 35.6 °F 30.7 °F 33.8 °F 93% 29.79 in 10.0 mi SW 5.8 mph - N/A   Overcast
10:35 PM 35.6 °F 29.9 °F 33.8 °F 93% 29.79 in 10.0 mi West 6.9 mph - N/A   Overcast
10:55 PM 35.6 °F 29.2 °F 33.8 °F 93% 29.78 in 10.0 mi West 8.1 mph - N/A   Overcast
11:15 PM 35.6 °F 31.7 °F 32.0 °F 87% 29.78 in 10.0 mi West 4.6 mph - N/A   Mostly Cloudy
11:35 PM 35.6 °F 28.0 °F 32.0 °F 87% 29.77 in 10.0 mi West 10.4 mph - N/A   Light Drizzle
11:55 PM 35.6 °F 27.5 °F 30.2 °F 81% 29.76 in 10.0 mi West 11.5 mph - N/A   Light Drizzle